TimeMDT,TemperatureF,Dew PointF,Humidity,Sea Level PressureIn,VisibilityMPH,Wind Direction,Wind SpeedMPH,Gust SpeedMPH,PrecipitationIn,Events,Conditions,WindDirDegrees,DateUTC
12:53 AM,37.9,12.9,36,29.75,10.0,WNW,24.2,31.1,N/A,,Mostly Cloudy,290,2013-04-30 06:53:00
1:53 AM,36.0,9.0,33,29.80,10.0,West,18.4,28.8,N/A,,Clear,260,2013-04-30 07:53:00
2:53 AM,33.1,15.1,48,29.83,10.0,WSW,15.0,-,N/A,,Clear,240,2013-04-30 08:53:00
3:53 AM,32.0,14.0,48,29.85,10.0,West,11.5,-,N/A,,Mostly Cloudy,260,2013-04-30 09:53:00
4:53 AM,32.0,15.1,50,29.86,10.0,WSW,13.8,-,N/A,,Overcast,240,2013-04-30 10:53:00
5:53 AM,30.0,14.0,51,29.87,10.0,West,17.3,-,N/A,,Clear,260,2013-04-30 11:53:00
6:53 AM,30.0,14.0,51,29.88,10.0,West,13.8,-,N/A,,Clear,280,2013-04-30 12:53:00
7:53 AM,36.0,12.0,37,29.91,10.0,NW,5.8,-,N/A,,Clear,310,2013-04-30 13:53:00
8:53 AM,39.0,10.0,30,29.89,10.0,SW,15.0,-,N/A,,Mostly Cloudy,230,2013-04-30 14:53:00
9:53 AM,41.0,9.0,27,29.89,10.0,WSW,23.0,29.9,N/A,,Clear,250,2013-04-30 15:53:00
10:53 AM,43.0,8.1,24,29.89,-9999.0,WSW,19.6,27.6,N/A,,Overcast,250,2013-04-30 16:53:00
11:53 AM,41.0,5.0,23,29.92,-9999.0,NW,9.2,-,N/A,,Overcast,310,2013-04-30 17:53:00
12:16 PM,39.2,8.6,28,29.90,10.0,North,10.4,20.7,N/A,,Overcast,10,2013-04-30 18:16:00
12:53 PM,41.0,6.1,24,29.93,10.0,NW,11.5,-,N/A,,Overcast,320,2013-04-30 18:53:00
1:53 PM,42.1,12.0,29,29.95,10.0,North,20.7,27.6,N/A,,Overcast,350,2013-04-30 19:53:00
2:53 PM,43.0,14.0,31,29.99,10.0,NW,18.4,31.1,N/A,,Clear,320,2013-04-30 20:53:00
3:53 PM,45.0,10.9,25,30.00,10.0,NW,15.0,19.6,N/A,,Clear,320,2013-04-30 21:53:00
4:53 PM,41.0,21.0,45,30.03,10.0,East,18.4,-,N/A,,Mostly Cloudy,90,2013-04-30 22:53:00
5:08 PM,39.2,21.2,49,29.99,10.0,ESE,20.7,-,N/A,,Overcast,110,2013-04-30 23:08:00
5:53 PM,37.9,19.0,47,30.09,10.0,SE,6.9,16.1,N/A,,Overcast,130,2013-04-30 23:53:00
6:53 PM,39.0,19.9,46,30.12,10.0,ESE,9.2,-,N/A,,Overcast,120,2013-05-01 00:53:00
7:53 PM,32.0,26.1,79,30.17,4.0,ESE,16.1,-,0.00,Snow,Light Snow,110,2013-05-01 01:53:00
8:53 PM,32.0,21.9,66,30.20,10.0,East,15.0,-,0.00,,Overcast,90,2013-05-01 02:53:00
9:28 PM,30.2,21.2,69,30.16,8.0,East,15.0,-,0.00,Snow,Light Snow,80,2013-05-01 03:28:00
9:53 PM,30.0,24.1,79,30.24,4.0,East,12.7,-,0.00,Snow,Light Snow,80,2013-05-01 03:53:00
10:02 PM,30.2,24.8,80,30.18,1.8,East,17.3,24.2,0.00,Snow,Light Snow,80,2013-05-01 04:02:00
10:31 PM,28.4,24.8,86,30.18,2.5,East,17.3,-,0.00,Snow,Light Snow,80,2013-05-01 04:31:00
10:38 PM,28.4,24.8,86,30.18,4.0,East,11.5,23.0,0.00,Snow,Light Snow,90,2013-05-01 04:38:00
11:53 PM,28.9,24.1,82,30.28,5.0,East,12.7,-,0.00,Snow,Light Snow,100,2013-05-01 05:53:00